[[{"header":{"parameterUnit":"m.s-1","parameterCategory":1,"la1":30.2992,"la2":30.254,"lo1":-89.0895,"lo2":-89.0443,"dy":0.0025,"dx":0.0025,"nx":19,"ny":19,"refTime":"2026-03-16T09:00:00:Z","depth":0,"parameterNumber":2,"parameterNumberName":"U-component_of_WINDS"},"data":[0,0,0,4.9931,4.9931,4.9903,4.9903,4.9895,4.9895,0,0,0,0,0,0,0,0,0,0,0,4.9955,4.9956,4.9931,4.9931,4.9903,4.9903,4.9895,4.9895,0,0,0,0,0,0,0,0,0,0,0,4.9955,4.9955,4.9956,4.993,4.9903,4.9903,4.9895,4.9906,0,0,0,0,0,0,0,0,0,0,4.9928,4.9966,4.9955,4.9956,4.993,4.9903,4.9903,4.9906,4.9905,4.9919,0,4.9936,0,4.9916,4.9896,4.9896,0,0,0,4.9918,4.9967,4.9945,4.9956,4.993,4.9904,4.9912,4.9905,4.9904,4.9918,4.9935,4.9934,4.9916,4.9896,4.9897,5.0023,5.0024,0,0,4.9919,4.9958,4.9946,4.9945,4.9952,4.9913,4.9911,4.9904,4.9925,4.9935,4.9934,4.9916,4.9897,4.9897,5.0021,5.0023,0,0,0,4.9932,4.996,4.9938,4.9946,4.994,4.9912,4.9911,4.9925,4.9915,4.9933,4.9915,4.9897,4.9897,5.002,5.0022,5.012,0,0,0,4.9932,4.9968,4.9939,4.9963,4.994,4.9932,4.9933,4.9916,4.9914,4.9916,4.9897,4.9897,5.0019,5.0021,5.0114,5.0159,0,0,0,4.9951,4.9969,4.9971,4.9965,4.9955,4.9931,4.992,4.9914,4.9903,4.9896,4.9897,5.0018,5.0021,5.0109,5.0151,5.0205,0,0,0,4.9982,5.0056,4.9974,5.005,4.9956,4.9993,4.992,4.9945,4.9951,4.9897,5.0019,5.0022,5.0108,5.0145,5.02,5.0258,5.0286,0,0,5.0097,5.0072,5.0114,5.0039,5.0101,4.9994,5.007,5.0037,4.9999,5.0017,5.002,5.0116,5.015,5.0204,5.0429,5.0452,0,0,0,5.0163,5.0194,5.0202,5.0211,5.019,5.0176,5.0127,5.0116,5.013,5.0017,5.0149,5.0168,5.0198,5.0224,5.0243,5.0267,5.0036,5.0035,5.0035,5.0381,5.0333,5.04,5.0349,5.0359,5.0311,5.0314,5.029,5.0235,5.0268,5.0272,5.0415,5.0447,5.0461,5.0487,5.0299,5.03,5.03,5.03,5.0547,5.0583,5.0513,5.0553,5.0502,5.0534,5.0493,5.0454,5.0477,5.0406,5.043,5.0358,5.0487,5.0507,5.0307,5.0306,5.0305,5.0304,5.0304,5.0684,5.0693,5.068,5.0691,5.0705,5.065,5.0678,5.0629,5.0583,5.0607,5.0608,5.0606,5.0599,5.0611,5.0612,5.0612,5.0613,5.0613,5.0613,5.0831,5.0814,5.0843,5.083,5.0832,5.0828,5.0784,5.0784,5.0771,5.0733,5.0733,5.0677,5.0509,5.0469,5.0621,5.0619,5.0618,5.0618,5.0617,5.1016,5.0968,5.1013,5.1015,5.0998,5.1017,5.0957,5.0962,5.0955,5.0971,5.091,5.0795,5.0763,5.0748,5.0714,5.092,5.092,5.092,5.092,5.1132,5.1113,5.1151,5.1158,5.1159,5.111,5.1165,5.1134,5.1093,5.1086,5.105,5.1,5.0987,5.0964,5.0944,5.0911,5.1163,5.1163,5.1163,5.1244,5.1224,5.1279,5.124,5.1225,5.1213,5.1264,5.1276,5.1219,5.1172,5.108,5.107,5.099,5.0966,5.0915,5.0884,5.0823,0,0]},{"header":{"parameterUnit":"m.s-1","parameterCategory":1,"la1":30.2992,"la2":30.254,"lo1":-89.0895,"lo2":-89.0443,"dy":0.0025,"dx":0.0025,"nx":19,"ny":19,"refTime":"2026-03-16T09:00:00:Z","depth":0,"parameterNumber":3,"parameterNumberName":"V-component_of_WINDS"},"data":[0,0,0,-10.9538,-10.9543,-10.9768,-10.9769,-11.0073,-11.0076,0,0,0,0,0,0,0,0,0,0,0,-10.9484,-10.9487,-10.9537,-10.9543,-10.9768,-10.9769,-11.0073,-11.0076,0,0,0,0,0,0,0,0,0,0,0,-10.9483,-10.9486,-10.9489,-10.9544,-10.9768,-10.9769,-11.0072,-10.9896,0,0,0,0,0,0,0,0,0,0,-10.9674,-10.9638,-10.9486,-10.949,-10.9546,-10.9768,-10.9769,-10.9887,-10.9907,-10.998,0,-11.0052,0,-11.007,-11.0098,-11.0099,0,0,0,-10.9532,-10.9622,-10.9671,-10.949,-10.9548,-10.9767,-10.9663,-10.9898,-10.992,-11.0006,-11.0056,-11.0067,-11.0075,-11.01,-11.0102,-11.0574,-11.0576,0,0,-10.9519,-10.9531,-10.9656,-10.9687,-10.9657,-10.9656,-10.967,-10.9911,-10.9964,-11.0057,-11.0073,-11.008,-11.0102,-11.0105,-11.0571,-11.0574,0,0,0,-10.9491,-10.9523,-10.9565,-10.9675,-10.9714,-10.9663,-10.9679,-10.9953,-10.9966,-11.0076,-11.0083,-11.0104,-11.0108,-11.0568,-11.0572,-11.0722,0,0,0,-10.9483,-10.9506,-10.9561,-10.957,-10.971,-10.9837,-10.9717,-10.995,-10.9977,-11.0082,-11.0104,-11.0111,-11.0565,-11.057,-11.0711,-11.079,0,0,0,-10.9465,-10.9504,-10.9542,-10.957,-10.9668,-10.9833,-10.986,-10.9955,-10.9982,-11.01,-11.0112,-11.0563,-11.0569,-11.0702,-11.0774,-11.092,0,0,0,-10.9447,-10.9666,-10.9544,-10.9792,-10.9666,-10.9925,-10.9858,-11.0049,-11.0168,-11.0106,-11.0565,-11.0572,-11.0699,-11.0764,-11.091,-11.1046,-11.1103,0,0,-10.973,-10.9701,-10.9846,-10.9743,-11.0028,-10.9889,-11.0195,-11.029,-11.0288,-11.0478,-11.0489,-11.0715,-11.0773,-11.0918,-11.142,-11.1466,0,0,0,-10.994,-11.0044,-11.0117,-11.0234,-11.0316,-11.0393,-11.0442,-11.0478,-11.064,-11.0389,-11.0805,-11.084,-11.0924,-11.0988,-11.1028,-11.11,-11.0602,-11.0601,-11.0601,-11.0354,-11.0346,-11.0586,-11.0607,-11.072,-11.0772,-11.0863,-11.092,-11.0872,-11.0971,-11.1027,-11.1334,-11.141,-11.1439,-11.1515,-11.1097,-11.1098,-11.1098,-11.1099,-11.0769,-11.0917,-11.0857,-11.1068,-11.1058,-11.1233,-11.1292,-11.1254,-11.1415,-11.1289,-11.1363,-11.1227,-11.149,-11.1555,-11.111,-11.1108,-11.1107,-11.1106,-11.1105,-11.1041,-11.1111,-11.1155,-11.1327,-11.146,-11.1471,-11.1632,-11.1614,-11.1597,-11.1671,-11.173,-11.1727,-11.1724,-11.17,-11.1701,-11.1702,-11.1703,-11.1704,-11.1705,-11.1306,-11.1351,-11.1491,-11.1602,-11.1677,-11.1773,-11.183,-11.1902,-11.1978,-11.1952,-11.1953,-11.1898,-11.1517,-11.1423,-11.1721,-11.1718,-11.1716,-11.1715,-11.1713,-11.1731,-11.1634,-11.185,-11.1927,-11.2056,-11.2192,-11.2169,-11.2319,-11.2376,-11.2456,-11.2387,-11.2109,-11.2076,-11.2045,-11.1967,-11.2387,-11.2387,-11.2387,-11.2387,-11.1962,-11.1946,-11.2165,-11.2289,-11.2408,-11.2412,-11.2656,-11.2703,-11.2735,-11.277,-11.2707,-11.2601,-11.257,-11.2556,-11.2514,-11.244,-11.2973,-11.2973,-11.2974,-11.2224,-11.222,-11.2432,-11.2468,-11.2569,-11.2656,-11.2886,-11.3029,-11.3044,-11.2997,-11.2798,-11.2773,-11.2603,-11.2547,-11.2494,-11.2429,-11.2294,0,0]}]]